Location: Gleizolles
(44.4833°N, 6.7667°E)
Time: 21:18:58
(UTC+00:00)

Tiros 1 despin weight - Pass Details

Date: 04 July 2024
Orbit: 576 x 620 km, 48.2° (Epoch: 19 July)

Event Time Altitude Azimuth Distance (km) Brightness Sun altitude
Rises 09:56:21 0° 278° (W) 2,873 ? 60.0°
Reaches altitude 10° 09:58:42 10° 284° (WNW) 1,974 ? 60.4°
Maximum altitude 10:03:09 53° 1° (N) 766 ? 61.0°
Drops below altitude 10° 10:07:37 10° 79° (E) 1,986 ? 61.6°
Sets 10:09:59 0° 84° (E) 2,893 ? 61.9°
